Location: Newark
(13.6797°N, 8.5297°E)
Time: 00:14:16
(UTC+00:00)

SR - Pass Details

Date: 28 January 2020
Orbit: 575 x 880 km, 66.7° (Epoch: 24 February)

Event Time Altitude Azimuth Distance (km) Brightness Sun altitude
Rises 07:09:09 0° 334° (NNW) 3,184 ? 16.3°
Reaches altitude 10° 07:11:38 10° 332° (NNW) 2,209 ? 16.8°
Maximum altitude 07:16:35 65° 251° (WSW) 741 ? 17.9°
Drops below altitude 10° 07:21:06 10° 169° (S) 2,020 ? 18.9°
Sets 07:23:18 0° 166° (SSE) 2,888 ? 19.4°
